Location: Honolulu
(21.3069°N, 157.8583°W)
Time: 07:18:13
(UTC-10:00)

Vanguard 2 Rocket - Pass Details

Date: 15 May 2026
Orbit: 553 x 3286 km, 32.9° (Epoch: 10 June)

Event Time Altitude Azimuth Distance (km) Brightness Sun altitude
Rises 20:51:02 0° 274° (W) 6,916 12.4 -23.3°
Reaches altitude 10° 21:00:33 10° 250° (WSW) 5,296 11.2 -25.2°
Maximum altitude 21:05:18 12° 231° (SW) 4,725 10.7 -26.1°
Drops below altitude 10° 21:09:29 10° 212° (SSW) 4,495 10.4 -26.8°
Enters shadow 21:14:13 - 189° (S) 4,648 10.3 -27.7°
